Time,TemperatureF,DewpointF,PressureIn,WindDirection,WindDirectionDegrees,WindSpeedMPH,WindSpeedGustMPH,Humidity,HourlyPrecipIn,Conditions,Clouds,dailyrainin,SoftwareType,DateUTC
2013-08-02 00:02:00,59.0,56.0,29.79,NW,326,0.0,-999.0,91,-99.99,,,-99.99,,2013-08-02 04:02:00,
2013-08-02 00:33:00,59.0,57.0,29.79,NW,326,0.0,-999.0,92,-99.99,,,-99.99,,2013-08-02 04:33:00,
2013-08-02 00:43:00,59.0,57.0,29.79,NW,326,0.0,-999.0,92,-99.99,,,-99.99,,2013-08-02 04:43:00,
2013-08-02 00:53:00,58.0,56.0,29.79,NW,326,0.0,-999.0,92,-99.99,,,-99.99,,2013-08-02 04:53:00,
2013-08-02 01:02:00,58.0,56.0,29.79,NW,326,0.0,-999.0,92,-99.99,,,-99.99,,2013-08-02 05:02:00,
2013-08-02 01:12:00,58.0,56.0,29.79,NW,326,0.0,-999.0,92,-99.99,,,-99.99,,2013-08-02 05:12:00,
2013-08-02 01:22:00,58.0,56.0,29.79,NW,326,0.0,-999.0,92,-99.99,,,-99.99,,2013-08-02 05:22:00,
2013-08-02 01:32:00,58.0,56.0,29.79,NW,326,0.0,-999.0,92,-99.99,,,-99.99,,2013-08-02 05:32:00,
2013-08-02 01:43:00,58.0,56.0,29.79,NW,326,0.0,-999.0,92,-99.99,,,-99.99,,2013-08-02 05:43:00,
2013-08-02 01:53:00,58.0,56.0,29.78,NW,326,0.0,-999.0,92,-99.99,,,-99.99,,2013-08-02 05:53:00,
2013-08-02 02:02:00,58.0,56.0,29.77,NW,326,0.0,-999.0,92,-99.99,,,-99.99,,2013-08-02 06:02:00,
2013-08-02 02:12:00,58.0,56.0,29.77,NW,326,0.0,-999.0,92,-99.99,,,-99.99,,2013-08-02 06:12:00,
2013-08-02 02:22:00,57.0,55.0,29.77,NW,326,0.0,-999.0,92,-99.99,,,-99.99,,2013-08-02 06:22:00,
2013-08-02 02:33:00,57.0,55.0,29.77,NW,326,0.0,-999.0,93,-99.99,,,-99.99,,2013-08-02 06:33:00,
2013-08-02 02:43:00,57.0,55.0,29.77,NW,326,0.0,-999.0,93,-99.99,,,-99.99,,2013-08-02 06:43:00,
2013-08-02 02:52:00,57.0,55.0,29.77,NW,326,0.0,-999.0,92,-99.99,,,-99.99,,2013-08-02 06:52:00,
2013-08-02 03:02:00,57.0,55.0,29.77,NW,326,0.0,-999.0,93,-99.99,,,-99.99,,2013-08-02 07:02:00,
2013-08-02 03:12:00,57.0,55.0,29.77,NW,326,0.0,-999.0,93,-99.99,,,-99.99,,2013-08-02 07:12:00,
2013-08-02 03:22:00,57.0,55.0,29.77,NW,326,0.0,-999.0,93,-99.99,,,-99.99,,2013-08-02 07:22:00,
2013-08-02 03:33:00,56.0,54.0,29.77,NW,326,0.0,-999.0,93,-99.99,,,-99.99,,2013-08-02 07:33:00,
2013-08-02 03:44:00,56.0,54.0,29.77,NW,326,0.0,-999.0,93,-99.99,,,-99.99,,2013-08-02 07:44:00,
2013-08-02 03:53:00,56.0,54.0,29.77,NW,326,0.0,-999.0,93,-99.99,,,-99.99,,2013-08-02 07:53:00,
2013-08-02 04:02:00,56.0,54.0,29.77,NW,326,0.0,-999.0,93,-99.99,,,-99.99,,2013-08-02 08:02:00,
2013-08-02 04:12:00,56.0,54.0,29.77,NW,326,0.0,-999.0,93,-99.99,,,-99.99,,2013-08-02 08:12:00,
2013-08-02 04:22:00,56.0,54.0,29.77,NW,326,0.0,-999.0,93,-99.99,,,-99.99,,2013-08-02 08:22:00,
2013-08-02 04:33:00,55.0,53.0,29.77,NW,326,0.0,-999.0,93,-99.99,,,-99.99,,2013-08-02 08:33:00,
2013-08-02 04:43:00,55.0,53.0,29.77,NW,326,0.0,-999.0,93,-99.99,,,-99.99,,2013-08-02 08:43:00,
2013-08-02 04:54:00,55.0,53.0,29.76,NW,326,0.0,-999.0,93,-99.99,,,-99.99,,2013-08-02 08:54:00,
2013-08-02 05:02:00,55.0,53.0,29.76,NW,326,0.0,-999.0,93,-99.99,,,-99.99,,2013-08-02 09:02:00,
2013-08-02 05:12:00,55.0,53.0,29.76,NW,326,0.0,-999.0,93,-99.99,,,-99.99,,2013-08-02 09:12:00,
2013-08-02 05:23:00,55.0,53.0,29.77,NW,326,0.0,-999.0,93,-99.99,,,-99.99,,2013-08-02 09:23:00,
2013-08-02 05:33:00,55.0,53.0,29.77,NW,326,0.0,-999.0,93,-99.99,,,-99.99,,2013-08-02 09:33:00,
2013-08-02 05:44:00,55.0,53.0,29.76,NW,326,0.0,-999.0,93,-99.99,,,-99.99,,2013-08-02 09:44:00,
2013-08-02 05:53:00,55.0,53.0,29.77,NW,326,0.0,-999.0,93,-99.99,,,-99.99,,2013-08-02 09:53:00,
2013-08-02 06:03:00,54.0,52.0,29.78,NW,326,0.0,-999.0,93,-99.99,,,-99.99,,2013-08-02 10:03:00,
2013-08-02 06:12:00,54.0,52.0,29.78,NW,326,0.0,-999.0,93,-99.99,,,-99.99,,2013-08-02 10:12:00,
2013-08-02 06:23:00,55.0,53.0,29.79,NW,326,0.0,-999.0,94,-99.99,,,-99.99,,2013-08-02 10:23:00,
2013-08-02 06:33:00,55.0,53.0,29.79,NW,326,0.0,-999.0,94,-99.99,,,-99.99,,2013-08-02 10:33:00,
2013-08-02 06:43:00,55.0,53.0,29.79,NW,326,0.0,-999.0,94,-99.99,,,-99.99,,2013-08-02 10:43:00,
2013-08-02 06:52:00,55.0,53.0,29.80,NW,326,0.0,-999.0,94,-99.99,,,-99.99,,2013-08-02 10:52:00,
2013-08-02 07:02:00,55.0,53.0,29.80,NW,326,0.0,-999.0,94,-99.99,,,-99.99,,2013-08-02 11:02:00,
2013-08-02 07:12:00,56.0,54.0,29.81,NW,326,0.0,-999.0,94,-99.99,,,-99.99,,2013-08-02 11:12:00,
2013-08-02 07:23:00,57.0,55.0,29.81,South,191,0.0,-999.0,94,-99.99,,,-99.99,,2013-08-02 11:23:00,
2013-08-02 07:43:00,58.0,56.0,29.81,SSW,193,0.0,-999.0,94,-99.99,,,-99.99,,2013-08-02 11:43:00,
2013-08-02 07:52:00,59.0,57.0,29.80,SSW,193,0.0,-999.0,94,-99.99,,,-99.99,,2013-08-02 11:52:00,
2013-08-02 08:02:00,59.0,57.0,29.80,SSW,193,0.0,-999.0,94,-99.99,,,-99.99,,2013-08-02 12:02:00,
2013-08-02 08:12:00,59.0,57.0,29.81,SW,215,0.0,-999.0,94,-99.99,,,-99.99,,2013-08-02 12:12:00,
2013-08-02 08:22:00,59.0,57.0,29.81,SW,215,0.0,-999.0,94,-99.99,,,-99.99,,2013-08-02 12:22:00,
2013-08-02 08:33:00,60.0,58.0,29.81,SW,215,0.0,-999.0,94,-99.99,,,-99.99,,2013-08-02 12:33:00,
2013-08-02 08:43:00,60.0,58.0,29.81,SW,215,0.0,-999.0,94,-99.99,,,-99.99,,2013-08-02 12:43:00,
2013-08-02 08:52:00,60.0,58.0,29.81,SW,215,0.0,-999.0,94,-99.99,,,-99.99,,2013-08-02 12:52:00,
2013-08-02 09:03:00,60.0,58.0,29.82,SW,215,0.0,-999.0,94,-99.99,,,-99.99,,2013-08-02 13:03:00,
2013-08-02 09:12:00,60.0,58.0,29.82,SW,215,0.0,-999.0,94,-99.99,,,-99.99,,2013-08-02 13:12:00,
2013-08-02 09:22:00,62.0,60.0,29.82,SW,215,0.0,-999.0,94,-99.99,,,-99.99,,2013-08-02 13:22:00,
2013-08-02 09:33:00,63.0,61.0,29.81,SW,215,0.0,-999.0,93,-99.99,,,-99.99,,2013-08-02 13:33:00,
2013-08-02 09:43:00,63.0,61.0,29.81,SW,215,0.0,-999.0,93,-99.99,,,-99.99,,2013-08-02 13:43:00,
2013-08-02 09:52:00,64.0,62.0,29.80,SW,216,0.0,-999.0,92,-99.99,,,-99.99,,2013-08-02 13:52:00,
2013-08-02 10:02:00,65.0,60.0,29.81,SW,234,1.0,-999.0,85,-99.99,,,-99.99,,2013-08-02 14:02:00,
2013-08-02 10:12:00,65.0,60.0,29.81,SW,234,1.0,-999.0,85,-99.99,,,-99.99,,2013-08-02 14:12:00,
2013-08-02 10:22:00,66.0,61.0,29.81,SW,233,0.0,-999.0,83,-99.99,,,-99.99,,2013-08-02 14:22:00,
2013-08-02 10:32:00,67.0,59.0,29.80,WSW,251,1.0,-999.0,75,-99.99,,,-99.99,,2013-08-02 14:32:00,
2013-08-02 10:43:00,67.0,59.0,29.80,WSW,251,1.0,-999.0,75,-99.99,,,-99.99,,2013-08-02 14:43:00,
2013-08-02 10:53:00,69.0,59.0,29.80,NNW,337,1.0,-999.0,71,-99.99,,,-99.99,,2013-08-02 14:53:00,
2013-08-02 11:03:00,70.0,59.0,29.81,NW,315,2.0,-999.0,68,-99.99,,,-99.99,,2013-08-02 15:03:00,
2013-08-02 11:12:00,70.0,59.0,29.81,NW,315,2.0,-999.0,68,-99.99,,,-99.99,,2013-08-02 15:12:00,
2013-08-02 11:22:00,70.0,58.0,29.82,West,260,3.0,-999.0,65,-99.99,,,-99.99,,2013-08-02 15:22:00,
2013-08-02 11:32:00,70.0,58.0,29.82,West,260,3.0,-999.0,65,-99.99,,,-99.99,,2013-08-02 15:32:00,
2013-08-02 11:43:00,70.0,58.0,29.82,West,260,3.0,-999.0,65,-99.99,,,-99.99,,2013-08-02 15:43:00,
2013-08-02 11:53:00,70.0,57.0,29.83,WSW,256,2.0,-999.0,63,-99.99,,,-99.99,,2013-08-02 15:53:00,
2013-08-02 12:02:00,72.0,58.0,29.82,West,271,2.0,-999.0,62,-99.99,,,-99.99,,2013-08-02 16:02:00,
2013-08-02 12:12:00,72.0,58.0,29.82,West,271,2.0,-999.0,62,-99.99,,,-99.99,,2013-08-02 16:12:00,
2013-08-02 12:22:00,72.0,58.0,29.82,West,271,2.0,-999.0,62,-99.99,,,-99.99,,2013-08-02 16:22:00,
2013-08-02 12:32:00,71.0,57.0,29.81,WSW,246,2.0,-999.0,62,-99.99,,,-99.99,,2013-08-02 16:32:00,
2013-08-02 12:43:00,71.0,57.0,29.81,WSW,246,2.0,-999.0,62,-99.99,,,-99.99,,2013-08-02 16:43:00,
2013-08-02 12:53:00,72.0,55.0,29.81,WNW,301,3.0,-999.0,56,-99.99,,,-99.99,,2013-08-02 16:53:00,
2013-08-02 13:02:00,71.0,56.0,29.82,SW,222,1.0,-999.0,60,-99.99,,,-99.99,,2013-08-02 17:02:00,
2013-08-02 13:12:00,71.0,56.0,29.82,SW,222,1.0,-999.0,60,-99.99,,,-99.99,,2013-08-02 17:12:00,
2013-08-02 13:22:00,71.0,55.0,29.83,NW,318,1.0,-999.0,58,-99.99,,,-99.99,,2013-08-02 17:22:00,
2013-08-02 13:35:00,71.0,55.0,29.83,NW,318,1.0,-999.0,58,-99.99,,,-99.99,,2013-08-02 17:35:00,
2013-08-02 13:43:00,71.0,56.0,29.83,West,263,2.0,-999.0,59,-99.99,,,-99.99,,2013-08-02 17:43:00,
2013-08-02 13:52:00,73.0,60.0,29.82,WSW,258,0.0,-999.0,63,-99.99,,,-99.99,,2013-08-02 17:52:00,
2013-08-02 14:12:00,73.0,56.0,29.82,NNW,329,2.0,-999.0,56,-99.99,,,-99.99,,2013-08-02 18:12:00,
2013-08-02 14:32:00,71.0,56.0,29.82,WSW,241,2.0,-999.0,60,-99.99,,,-99.99,,2013-08-02 18:32:00,
2013-08-02 14:43:00,70.0,56.0,29.83,SW,220,1.0,-999.0,62,-99.99,,,-99.99,,2013-08-02 18:43:00,
2013-08-02 14:52:00,72.0,58.0,29.82,SW,226,1.0,-999.0,61,-99.99,,,-99.99,,2013-08-02 18:52:00,
2013-08-02 15:02:00,72.0,58.0,29.82,SW,226,1.0,-999.0,61,-99.99,,,-99.99,,2013-08-02 19:02:00,
2013-08-02 15:12:00,72.0,57.0,29.82,SW,223,2.0,-999.0,60,-99.99,,,-99.99,,2013-08-02 19:12:00,
2013-08-02 15:22:00,72.0,57.0,29.82,WSW,240,4.0,-999.0,59,-99.99,,,-99.99,,2013-08-02 19:22:00,
2013-08-02 15:43:00,73.0,59.0,29.83,SW,226,2.0,-999.0,62,-99.99,,,-99.99,,2013-08-02 19:43:00,
2013-08-02 15:52:00,73.0,57.0,29.82,SSW,205,4.0,-999.0,58,-99.99,,,-99.99,,2013-08-02 19:52:00,
2013-08-02 16:02:00,74.0,59.0,29.81,WSW,256,3.0,-999.0,59,-99.99,,,-99.99,,2013-08-02 20:02:00,
2013-08-02 16:12:00,74.0,59.0,29.81,WSW,256,3.0,-999.0,59,-99.99,,,-99.99,,2013-08-02 20:12:00,
2013-08-02 16:23:00,73.0,58.0,29.82,WSW,237,4.0,-999.0,59,-99.99,,,-99.99,,2013-08-02 20:23:00,
2013-08-02 16:43:00,72.0,57.0,29.81,SW,226,5.0,-999.0,60,-99.99,,,-99.99,,2013-08-02 20:43:00,
2013-08-02 16:52:00,71.0,55.0,29.82,WSW,243,4.0,-999.0,57,-99.99,,,-99.99,,2013-08-02 20:52:00,
2013-08-02 17:03:00,71.0,55.0,29.82,WSW,243,4.0,-999.0,57,-99.99,,,-99.99,,2013-08-02 21:03:00,
2013-08-02 17:12:00,71.0,55.0,29.82,WSW,243,4.0,-999.0,57,-99.99,,,-99.99,,2013-08-02 21:12:00,
2013-08-02 17:32:00,71.0,55.0,29.81,SW,215,4.0,-999.0,58,-99.99,,,-99.99,,2013-08-02 21:32:00,
2013-08-02 17:43:00,72.0,55.0,29.80,SW,232,5.0,-999.0,55,-99.99,,,-99.99,,2013-08-02 21:43:00,
2013-08-02 17:53:00,72.0,55.0,29.80,South,185,5.0,-999.0,55,-99.99,,,-99.99,,2013-08-02 21:53:00,
2013-08-02 18:02:00,72.0,56.0,29.79,South,171,3.0,-999.0,57,-99.99,,,-99.99,,2013-08-02 22:02:00,
2013-08-02 18:12:00,72.0,56.0,29.79,South,171,3.0,-999.0,57,-99.99,,,-99.99,,2013-08-02 22:12:00,
2013-08-02 18:32:00,71.0,55.0,29.79,SW,217,4.0,-999.0,58,-99.99,,,-99.99,,2013-08-02 22:32:00,
2013-08-02 18:43:00,69.0,55.0,29.78,SSW,196,2.0,-999.0,61,-99.99,,,-99.99,,2013-08-02 22:43:00,
2013-08-02 18:52:00,69.0,56.0,29.78,SW,232,3.0,-999.0,63,-99.99,,,-99.99,,2013-08-02 22:52:00,
2013-08-02 19:02:00,69.0,56.0,29.78,WSW,248,0.0,-999.0,64,-99.99,,,-99.99,,2013-08-02 23:02:00,
2013-08-02 19:12:00,69.0,56.0,29.78,WSW,248,0.0,-999.0,64,-99.99,,,-99.99,,2013-08-02 23:12:00,
2013-08-02 19:22:00,68.0,56.0,29.78,SSW,202,1.0,-999.0,65,-99.99,,,-99.99,,2013-08-02 23:22:00,
2013-08-02 19:32:00,68.0,55.0,29.78,SSW,210,2.0,-999.0,64,-99.99,,,-99.99,,2013-08-02 23:32:00,
2013-08-02 19:43:00,68.0,55.0,29.78,SSW,210,2.0,-999.0,64,-99.99,,,-99.99,,2013-08-02 23:43:00,
2013-08-02 19:53:00,68.0,54.0,29.78,SSW,212,2.0,-999.0,62,-99.99,,,-99.99,,2013-08-02 23:53:00,
2013-08-02 20:02:00,68.0,54.0,29.79,WSW,239,1.0,-999.0,62,-99.99,,,-99.99,,2013-08-03 00:02:00,
2013-08-02 20:12:00,68.0,54.0,29.79,WSW,239,1.0,-999.0,62,-99.99,,,-99.99,,2013-08-03 00:12:00,
2013-08-02 20:22:00,68.0,55.0,29.79,WSW,246,2.0,-999.0,63,-99.99,,,-99.99,,2013-08-03 00:22:00,
2013-08-02 20:33:00,67.0,54.0,29.78,SSW,200,1.0,-999.0,64,-99.99,,,-99.99,,2013-08-03 00:33:00,
2013-08-02 20:43:00,67.0,54.0,29.78,SSW,200,1.0,-999.0,64,-99.99,,,-99.99,,2013-08-03 00:43:00,
2013-08-02 20:52:00,67.0,55.0,29.78,SSW,206,1.0,-999.0,65,-99.99,,,-99.99,,2013-08-03 00:52:00,
2013-08-02 21:03:00,67.0,56.0,29.77,South,185,0.0,-999.0,67,-99.99,,,-99.99,,2013-08-03 01:03:00,
2013-08-02 21:12:00,67.0,56.0,29.77,South,185,0.0,-999.0,67,-99.99,,,-99.99,,2013-08-03 01:12:00,
2013-08-02 21:22:00,67.0,56.0,29.77,SSW,198,1.0,-999.0,67,-99.99,,,-99.99,,2013-08-03 01:22:00,
2013-08-02 21:32:00,67.0,56.0,29.77,WSW,246,0.0,-999.0,68,-99.99,,,-99.99,,2013-08-03 01:32:00,
2013-08-02 21:42:00,67.0,56.0,29.77,WSW,246,0.0,-999.0,68,-99.99,,,-99.99,,2013-08-03 01:42:00,
2013-08-02 21:53:00,67.0,56.0,29.77,WSW,237,1.0,-999.0,69,-99.99,,,-99.99,,2013-08-03 01:53:00,
2013-08-02 22:02:00,67.0,56.0,29.77,SSW,202,0.0,-999.0,69,-99.99,,,-99.99,,2013-08-03 02:02:00,
2013-08-02 22:12:00,67.0,56.0,29.77,SSW,202,0.0,-999.0,69,-99.99,,,-99.99,,2013-08-03 02:12:00,
2013-08-02 22:22:00,66.0,59.0,29.77,SSE,162,1.0,-999.0,78,-99.99,,,-99.99,,2013-08-03 02:22:00,
2013-08-02 22:32:00,64.0,58.0,29.78,SSW,212,1.0,-999.0,82,-99.99,,,-99.99,,2013-08-03 02:32:00,
2013-08-02 22:43:00,64.0,58.0,29.78,SSW,212,1.0,-999.0,82,-99.99,,,-99.99,,2013-08-03 02:43:00,
2013-08-02 22:53:00,64.0,59.0,29.78,SSW,213,1.0,-999.0,84,-99.99,,,-99.99,,2013-08-03 02:53:00,
2013-08-02 23:02:00,64.0,59.0,29.78,SSW,213,1.0,-999.0,84,-99.99,,,-99.99,,2013-08-03 03:02:00,
2013-08-02 23:12:00,64.0,59.0,29.78,SSW,213,1.0,-999.0,84,-99.99,,,-99.99,,2013-08-03 03:12:00,
2013-08-02 23:22:00,65.0,59.0,29.77,SSW,209,3.0,-999.0,82,-99.99,,,-99.99,,2013-08-03 03:22:00,
2013-08-02 23:43:00,65.0,60.0,29.77,WSW,239,3.0,-999.0,84,-99.99,,,-99.99,,2013-08-03 03:43:00,
2013-08-02 23:53:00,65.0,60.0,29.77,WSW,256,1.0,-999.0,85,-99.99,,,-99.99,,2013-08-03 03:53:00,